DURO2: Washita River Durwood, OK

                                SHEF ID:       DURO2     Washita River near Dickson, OK
STATION TYPE:
Regulating: Stage = 27.00, Flow = 32534

PRECIP PRECIP(A) STAGE STAGE(2) RIV-FLOW BAT-LOAD
in in ft ft cfs volt
Ccp-Rev Ccp-Rev Ccp-Rev Ccp-Rev Ccp-Rev Ccp-Rev
(America/Chicago)
04/22 00:00 0.00 ---- 8.88 8.86 1067 12.39
04/22 01:00 0.00 ---- 8.87 8.86 1059 12.37
04/22 02:00 0.00 ---- 8.86 8.84 1051 12.35
04/22 03:00 0.00 ---- 8.85 8.83 1043 12.33
04/22 04:00 0.00 ---- 8.83 8.82 1027 12.30
04/22 05:00 0.00 ---- 8.83 8.81 1027 12.29
04/22 06:00 0.00 ---- 8.81 8.80 1012 12.27
04/22 07:00 0.00 ---- 8.80 8.79 1004 12.27
04/22 08:00 0.00 ---- 8.80 8.78 1004 12.27
04/22 09:00 0.00 ---- 8.79 8.77 996 12.31
04/22 10:00 0.00 ---- 8.77 8.76 981 12.44
04/22 11:00 0.00 ---- 8.76 8.75 975 12.60
04/22 12:00 0.00 ---- 8.76 8.74 975 12.82
04/22 13:00 0.00 ---- 8.75 8.74 969 12.90
04/22 14:00 0.00 ---- 8.75 8.73 969 12.96
04/22 15:00 0.00 ---- 8.74 8.73 963 13.06
04/22 16:00 0.00 ---- 8.73 8.72 957 13.07
04/22 17:00 0.00 ---- 8.72 8.71 951 13.06
04/22 18:00 0.00 ---- 8.70 8.70 939 12.94
04/22 19:00 0.00 ---- 8.70 8.69 939 12.90
04/22 20:00 0.00 ---- 8.69 8.68 933 12.73
04/22 21:00 0.00 ---- 8.68 8.67 927 12.53
04/22 22:00 0.00 ---- 8.67 8.65 921 12.48
04/22 23:00 0.00 ---- 8.66 8.64 916 12.45
Data processed at Thu 23Apr2026 04:36 GMT

NOTICE: If you are parsing this page

Please convert to using our Data API. Starting early 2026 we will be migrating to: https://water.usace.army.mil with modern pages rendered in JavaScript. When this migration completes you will no longer be able to scrape this page! CWMSDataAPI (CDA)

Timeseries IDs (TSIDs)

TSIDs used from left to right in the data table
DICK.Precip-Inc.Total.1Hour.1Hour.Ccp-Rev
DICK.Precip-Inc Alt.Total.1Hour.1Hour.Ccp-Rev
DICK.Stage.Inst.1Hour.0.Ccp-Rev
DICK.Flow.Inst.1Hour.0.Ccp-Rev
DICK.Volt-Battery Load.Inst.1Hour.0.Ccp-Rev

                            

All information presented herein is the property of the government of the United States of America and may be revised or deleted at any time without prior notice. Dissemination of this information without the expressed written consent of the Public Affairs Office, Tulsa District U.S. Army Corps of Engineers is strictly prohibited. These data are gathered electronically and, as presented, have NOT undergone any form of quality control. These data are NOT guaranteed to be valid or correct.